Location: Nitra
(0.0000°N, 18.0833°E)
Time: 00:09:30
(UTC+02:00)

Hubble Space Telescope - Pass Details

Date: 03 February 2023
Orbit: 527 x 530 km, 28.5° (Epoch: 28 March)

Event Time Altitude Azimuth Distance (km) Brightness Sun altitude
Rises 19:30:23 0° 235° (SW) 2,646 5.6 -21.3°
Reaches altitude 10° 19:32:39 10° 233° (SW) 1,756 4.4 -21.8°
Enters shadow 19:36:30 66° 169° (SSE) 570 0.8 -22.7°
